Cork, Ireland

10:24 PM GMT on March 25, 2017 (GMT +0000)
Cork

Weather History for EICK - August, 2013

Change the Weather History Date:

Thursday, August 15, 2013

  Actual Average Record
Temperature  
Mean Temperature 61 °F -  
Max Temperature 63 °F 63 °F 68 °F (1997)
Min Temperature 57 °F 50 °F 45 °F (2015)
Degree Days  
Heating Degree Days 4    
Growing Degree Days 11 (Base 50)    
Moisture  
Dew Point 62 °F    
Average Humidity 100    
Maximum Humidity 100    
Minimum Humidity 99    
Precipitation  
Precipitation 0.20 in 0.12 in - ()
Sea Level Pressure  
Sea Level Pressure 29.94 in    
Wind  
Wind Speed 12 mph ()    
Max Wind Speed 23 mph    
Max Gust Speed 33 mph    
Visibility 4.1 miles    
Events Fog , Rain    
Averages and records for this station are not official NWS values.
T = Trace of Precipitation, MM = Missing Value Source: Averaged Metar Reports

Daily Weather History Graph

Daily Weather History Graph

Search for Another Location

Airport or City:

Trip Planner

Search our weather history database for the weather conditions in past years. The results will help you decide how hot, cold, wet, or windy it might be!

Date:

Astronomy

Aug. 15, 2013 Rise Set
Actual Time 6:18 AM IST 8:57 PM IST
Civil Twilight 5:40 AM IST 9:34 PM IST
Nautical Twilight 4:51 AM IST 10:23 PM IST
Astronomical Twilight 3:52 AM IST 11:21 PM IST
Moon 4:12 PM IST (8/15) 12:07 AM IST (8/15)
Length of Visible Light 15h 54m
Length of Day
14h 38m
First Quarter, 61% of the Moon is Illuminated
Aug 15
First Quarter
Aug 21
Full
Aug 28
Last Quarter
Sep 5
New
Sep 12
First Quarter

Hourly Weather History & Observations

Time (IST) Temp. Dew Point Humidity Pressure Visibility Wind Dir Wind Speed Gust Speed Precip Events Conditions
12:00 AM 62.6 °F 62.6 °F 100% 30.04 in 0.6 mi SW 11.5 mph - N/A Fog Light Drizzle
12:30 AM 62.6 °F 62.6 °F 100% 30.04 in 0.2 mi SW 10.4 mph - N/A Fog Light Drizzle
1:00 AM 62 °F 62 °F 99% 30.04 in 0 mi SW 11.2 mph - - Fog Partial Fog
1:00 AM 62.6 °F 62.6 °F 100% 30.04 in 0.2 mi SW 10.4 mph - N/A Fog Fog
1:30 AM 62.6 °F 62.6 °F 100% 30.04 in 0.4 mi SW 10.4 mph - N/A Fog Light Drizzle
2:00 AM 62.6 °F 62.6 °F 100% 30.04 in 6.2 mi SW 10.4 mph - N/A   Light Drizzle
2:30 AM 62.6 °F 62.6 °F 100% 30.01 in 1.0 mi SW 12.7 mph - N/A   Light Drizzle
3:00 AM 62.6 °F 62.6 °F 100% 30.01 in 5.6 mi WSW 9.2 mph - N/A   Light Drizzle
3:30 AM 62.6 °F 62.6 °F 100% 30.01 in 6.2 mi SW 9.2 mph - N/A   Light Drizzle
4:00 AM 62.6 °F 62.6 °F 100% 30.01 in 6.2 mi SW 11.5 mph - N/A   Light Drizzle
4:30 AM 62.6 °F 62.6 °F 100% 30.01 in 6.2 mi SW 12.7 mph - N/A Rain Light Rain
5:00 AM 62.6 °F 62.6 °F 100% 30.01 in 6.2 mi SW 11.5 mph - N/A Rain Light Rain
5:30 AM 62.6 °F 62.6 °F 100% 29.98 in 6.2 mi SW 12.7 mph - N/A Rain Light Rain
6:00 AM 62.6 °F 62.6 °F 100% 29.98 in 6.2 mi SW 13.8 mph - N/A   Mostly Cloudy
6:30 AM 62.6 °F 62.6 °F 100% 29.98 in 0.9 mi SW 11.5 mph - N/A   Light Drizzle
7:00 AM 62 °F 62 °F 100% 29.99 in 16 mi SW 11.2 mph - - Rain Light Drizzle
7:00 AM 62.6 °F 62.6 °F 100% 29.98 in 6.2 mi SW 10.4 mph - N/A   Mostly Cloudy
7:30 AM 62.6 °F 62.6 °F 100% 29.98 in 3.7 mi SW 11.5 mph - N/A   Overcast
8:00 AM 62.6 °F 62.6 °F 100% 29.98 in 3.1 mi SW 11.5 mph - N/A   Light Drizzle
8:30 AM 62.6 °F 62.6 °F 100% 29.98 in 3.1 mi SW 11.5 mph - N/A   Overcast
9:00 AM 62.6 °F 62.6 °F 100% 29.98 in 6.2 mi SW 12.7 mph - N/A   Mostly Cloudy
9:30 AM 62.6 °F 62.6 °F 100% 29.98 in 3.1 mi SSW 15.0 mph - N/A   Overcast
10:00 AM 62.6 °F 62.6 °F 100% 29.95 in 1.6 mi SSW 16.1 mph - N/A Rain Light Rain
10:30 AM 62.6 °F 62.6 °F 100% 29.95 in 0.9 mi SW 17.3 mph - N/A Rain Light Rain
11:00 AM 62.6 °F 62.6 °F 100% 29.95 in 2.2 mi SSW 18.4 mph - N/A Rain Light Rain
11:30 AM 62.6 °F 62.6 °F 100% 29.95 in 6.2 mi SSW 17.3 mph - N/A   Mostly Cloudy
12:00 PM 62.6 °F 62.6 °F 100% 29.95 in 6.2 mi SSW 19.6 mph - N/A Rain Light Rain
12:30 PM 62.6 °F 62.6 °F 100% 29.92 in 3.7 mi SSW 16.1 mph - N/A   Overcast
1:00 PM 63 °F 63 °F 100% 29.92 in 1 mi SSW 20.1 mph - - Rain Light Rain
1:00 PM 62.6 °F 62.6 °F 100% 29.92 in 1.1 mi SSW 20.7 mph 33.4 mph N/A Rain Light Rain
1:30 PM 62.6 °F 62.6 °F 100% 29.92 in 6.2 mi SSW 21.9 mph - N/A Rain Light Rain
2:00 PM 62.6 °F 62.6 °F 100% 29.89 in 5.6 mi SSW 23.0 mph - N/A Rain Light Rain
2:30 PM 62.6 °F 62.6 °F 100% 29.89 in 6.2 mi SW 23.0 mph - N/A Rain Light Rain
3:00 PM 62.6 °F 62.6 °F 100% 29.89 in 6.2 mi SW 19.6 mph 32.2 mph N/A Rain Light Rain
3:30 PM 62.6 °F 62.6 °F 100% 29.89 in 6.2 mi SW 20.7 mph - N/A Rain Light Rain
4:00 PM 62.6 °F 62.6 °F 100% 29.89 in 3.7 mi SW 19.6 mph - N/A Rain Light Rain
4:30 PM 62.6 °F 62.6 °F 100% 29.86 in 3.1 mi SSW 19.6 mph - N/A Rain Light Rain
5:00 PM 62.6 °F 62.6 °F 100% 29.86 in 3.1 mi SW 20.7 mph - N/A   Overcast
5:30 PM 62.6 °F 62.6 °F 100% 29.86 in 4.3 mi SW 13.8 mph - N/A Rain Light Rain
6:00 PM 62.6 °F 62.6 °F 100% 29.86 in 3.7 mi SW 17.3 mph - N/A Rain Light Rain
6:30 PM 62.6 °F 62.6 °F 100% 29.86 in 3.1 mi SW 16.1 mph - N/A   Overcast
7:00 PM 62 °F 62 °F 100% 29.86 in 2 mi SSW 15.7 mph - - Rain Light Rain
7:00 PM 62.6 °F 62.6 °F 100% 29.86 in 1.9 mi SSW 15.0 mph - N/A Rain Light Rain
7:30 PM 62.6 °F 62.6 °F 100% 29.86 in 5.0 mi SW 15.0 mph - N/A Rain Rain
8:00 PM 62.6 °F 62.6 °F 100% 29.83 in 3.7 mi SW 12.7 mph - N/A Rain Light Rain
8:30 PM 62.6 °F 62.6 °F 100% 29.83 in 6.2 mi SW 12.7 mph - N/A Rain Light Rain
9:00 PM 62.6 °F 62.6 °F 100% 29.86 in 0.3 mi SW 10.4 mph - N/A Fog , Rain Light Rain
9:30 PM 60.8 °F 60.8 °F 100% 29.86 in 3.1 mi West 6.9 mph - N/A Rain Light Rain
10:00 PM 60.8 °F 60.8 °F 100% 29.89 in 2.5 mi NNW 11.5 mph - N/A Rain Light Rain
10:30 PM 59.0 °F 59.0 °F 100% 29.89 in 6.2 mi NNW 12.7 mph - N/A   Overcast
11:00 PM 59.0 °F 59.0 °F 100% 29.89 in 6.2 mi NW 16.1 mph - N/A   Overcast
11:30 PM 57.2 °F 57.2 °F 100% 29.89 in 6.2 mi NNW 19.6 mph - N/A   Mostly Cloudy